User: anonymous   Login
Location: Caltech
(34.1382°N, 118.1253°W)
Time: 20:35:59
(UTC-07:00)
Language:

SL-08 R/B - Orbit

View from above orbital plane
View from above orbital plane
View from above satellite
View from above satellite

Ground track
Ground track

The orbit data is extracted from the following two-line orbital elements,

1 27561U 02054C   16270.22373155  .00000110  00000-0  35731-4 0  9991
2 27561  98.2221  41.5219 0044967 271.7037  87.9011 14.55557826733889
Epoch (UTC): 26 September 2016 05:22:10
Eccentricity: 0.0044967
inclination: 98.2221°
perigee height: 675 km
apogee height: 739 km
right ascension of ascending node: 41.5219°
argument of perigee: 271.7037°
revolutions per day: 14.55557826
mean anomaly at epoch: 87.9011°
orbit number at epoch: 73388

The dashed part of the orbit path shows where the satellite is in the earth's shadow,  

DLR